Location: Northam
(31.6525°S, 116.6655°E)
Time: 07:12:38
(UTC+08:00)

AAUSAT CUBESAT 2 - Pass Details

Date: 04 August 2021
Orbit: 573 x 587 km, 97.5° (Epoch: 27 September)

Event Time Altitude Azimuth Distance (km) Brightness Sun altitude
Rises 05:21:48 0° 354° (N) 2,782 ? -21.0°
Reaches altitude 10° 05:24:03 10° 345° (NNW) 1,894 ? -20.5°
Enters shadow 05:25:54 23° 328° (NNW) 1,259 ? -20.1°
